Location: Bucquoy
(50.1391°N, 2.7097°E)
Time: 01:29:04
(UTC+00:00)

ISS - Pass Details

Date: 06 May 2021
Orbit: 417 x 422 km, 51.6° (Epoch: 22 June)

Event Time Altitude Azimuth Distance (km) Brightness Sun altitude
Exits shadow 00:49:37 17° 97° (E) 1,147 -1.5 -21.8°
Drops below altitude 10° 00:50:41 10° 85° (E) 1,508 -0.7 -21.8°
Sets 00:52:57 0° 74° (ENE) 2,377 0.5 -21.7°
